Tracking 19792 objects as of 16-Jul-2019
HD Live streaming from Space Station
objects crossing your sky now

METEOR 2-5 DEB


METEOR 2-5 DEB is no longer on orbit


NORAD ID: 36909
Int'l Code: 1979-095BA
Perigee: N/A
Apogee: N/A
Inclination: N/A
Period: N/A
Semi major axis: N/A
RCS: N/A
Launch date: October 31, 1979
Source: Commonwealth of Independent States (former USSR) (CIS)
Launch site: PLESETSK MISSILE AND SPACE COMPLEX (PKMTR)
Decay date: 2015-01-07

Note: This is SATELLITE DEBRIS
aabbcc
Your satellite tracking list
Your tracking list is empty




NASA's NSSDC Master Catalog

Two Line Element Set (TLE):
1 36909U 79095BA  14287.84481567  .00072089  00000-0  51709-2 0  9992
2 36909 081.1804 327.4335 0004838 213.2405 173.8714 15.03986151545822
Source of the keplerian elements: AFSPC